Flag for United Kingdom Weather past 2 weeks in Londonderry, Northern Ireland, United Kingdom

Now
39 °F

Scattered showers. Scattered clouds.


Feels Like: 29 °F
Forecast: N/A
Wind: 23 mph from North

Location: Eglinton / Londonderry

Current Time: Jan 31, 2015 at 5:13:36 PM

Latest Report: Jan 31, 2015 at 2:50 PM


Visibility: N/A

Pressure: 29.53 "Hg

Humidity: 81%

Dew point: 34 °F

Location of LondonderryLocation

Historic Weather in Londonderry — Graph

°F

Londonderry temperature yesterday

Maximum temperature yesterday: 43 °F (at 5:50 AM)
Minimum temperature yesterday: 39 °F (at 10:20 AM)
Average temperature yesterday: 40 °F

Past Weeks' High & Low Weather Summary

 TemperatureHumidityPressure
High54 °F (Jan 25, 12:50 PM)100% (Jan 17, 8:20 AM)30.30 "Hg (Jan 17, 8:20 AM)
Low28 °F (Jan 19, 7:20 AM)60% (Jan 19, 4:20 PM)28.88 "Hg (Jan 29, 11:50 AM)
Average41 °F84%29.77 "Hg
* Reported Jan 16 2:20 PM — Jan 31 2:50 PM, Londonderry, Weather by CustomWeather, © 2014

Note: Actual official high and low records may vary slightly from our data, if they occured in-between our weather recording intervals... More about our weather records

Advertising

Londonderry weather history for previous 24 hours

 ConditionsComfort  
Time TempWeatherWind HumidityBarometerVisibility
2:50 PM
Jan 31
39 °FScattered showers. Scattered clouds.23 mph81%29.53 "HgN/A
2:20 PM39 °FScattered showers. Scattered clouds.25 mph75%29.53 "HgN/A
1:50 PM39 °FSprinkles. Scattered clouds.31 mph81%29.53 "HgN/A
1:20 PM39 °FPassing clouds.28 mph75%29.50 "HgN/A
12:50 PM39 °FScattered showers. Partly sunny.25 mph75%29.50 "HgN/A
12:20 PM41 °FRain showers. Scattered clouds.24 mph76%29.50 "HgN/A
11:50 AM39 °FScattered showers. Scattered clouds.32 mph75%29.47 "HgN/A
11:20 AM41 °FScattered showers. Scattered clouds.32 mph66%29.47 "HgN/A
10:50 AM39 °FScattered showers. Scattered clouds.24 mph75%29.45 "HgN/A
10:20 AM41 °FScattered showers. Scattered clouds.28 mph66%29.42 "Hg5 mi
9:50 AM39 °FScattered showers. Passing clouds.24 mph75%29.42 "HgN/A
9:20 AM41 °FScattered showers. Scattered clouds.23 mph70%29.39 "HgN/A
8:50 AM41 °FScattered clouds.29 mph70%29.39 "HgN/A
8:20 AM41 °FPassing clouds.30 mph70%29.36 "HgN/A
7:50 AM37 °FPassing clouds.31 mph87%29.36 "Hg6 mi
7:20 AM41 °FPassing clouds.32 mph76%29.33 "HgN/A
6:50 AM41 °FPassing clouds.28 mph70%29.30 "HgN/A
6:20 AM39 °FPassing clouds.28 mph81%29.27 "HgN/A
5:50 AM41 °FScattered showers. Passing clouds.26 mph76%29.27 "HgN/A
5:50 PM
Jan 30
39 °FSprinkles. Passing clouds.12 mph87%29.00 "HgN/A
5:20 PM39 °FPassing clouds.14 mph87%28.97 "HgN/A
Weather by CustomWeather, © 2014

See weather overviewHow to use our weather pages